THA222 EKCH-EDHL

Flight info

Callsign THA222
Flight time 0h 29m
Altitude 24000
Route NEXEN L990 MARIP N850 BOGMU BOGMU2R
Aircraft A388/J-SADE2E3FGHIJ3J4J5M1RWXY/LB1D1

Departure

Time 2026-04-22 20:48
Airport Copenhagen Kastrup Airport (EKCH)

Arrival

Time 2026-04-22 21:18
Airport Lübeck Blankensee Airport (EDHL)
Time Latitude Longitude Altitude Speed Heading
2026-04-22 20:30 55.62360 12.65078 27 ft 0 kts 285°
2026-04-22 20:37 55.62356 12.65108 25 ft 3 kts 279°
2026-04-22 20:37 55.62356 12.65127 31 ft 2 kts 267°
2026-04-22 20:37 55.62359 12.65149 32 ft 2 kts 252°
2026-04-22 20:38 55.62366 12.65168 25 ft 2 kts 232°
2026-04-22 20:38 55.62375 12.65180 25 ft 2 kts 210°
2026-04-22 20:38 55.62392 12.65188 25 ft 3 kts 191°
2026-04-22 20:38 55.62401 12.65190 32 ft 0 kts 184°
2026-04-22 20:42 55.62387 12.65188 24 ft 7 kts 181°
2026-04-22 20:43 55.62306 12.65193 27 ft 16 kts 176°
2026-04-22 20:43 55.62180 12.65142 29 ft 22 kts 207°
2026-04-22 20:43 55.62109 12.65073 28 ft 2 kts 211°
2026-04-22 20:43 55.62109 12.65072 28 ft 0 kts 211°
2026-04-22 20:44 55.62028 12.64984 31 ft 40 kts 213°
2026-04-22 20:44 55.61808 12.64721 27 ft 35 kts 213°
2026-04-22 20:44 55.61620 12.64499 28 ft 31 kts 213°
2026-04-22 20:44 55.61452 12.64303 23 ft 27 kts 213°
2026-04-22 20:45 55.61297 12.64135 26 ft 24 kts 213°
2026-04-22 20:45 55.61163 12.63979 27 ft 21 kts 210°
2026-04-22 20:45 55.61049 12.63848 26 ft 18 kts 214°
2026-04-22 20:45 55.60954 12.63738 26 ft 15 kts 213°
2026-04-22 20:46 55.60790 12.63553 32 ft 13 kts 211°
2026-04-22 20:46 55.60712 12.63469 26 ft 14 kts 213°
2026-04-22 20:46 55.60626 12.63355 30 ft 21 kts 220°
2026-04-22 20:47 55.60507 12.63248 27 ft 16 kts 157°
2026-04-22 20:47 55.60427 12.63412 30 ft 19 kts 89°
2026-04-22 20:47 55.60508 12.63610 30 ft 23 kts 40°
2026-04-22 20:47 55.60671 12.63862 32 ft 58 kts 41°
2026-04-22 20:48 55.61229 12.64697 27 ft 145 kts 41°
2026-04-22 20:48 55.62109 12.66077 217 ft 181 kts 39°
2026-04-22 20:48 55.62721 12.67035 762 ft 170 kts 35°
2026-04-22 20:48 55.63681 12.68284 1733 ft 176 kts 27°
2026-04-22 20:49 55.64704 12.69476 2529 ft 182 kts 30°
2026-04-22 20:49 55.65715 12.71044 3146 ft 203 kts 38°
2026-04-22 20:49 55.66766 12.72874 3739 ft 221 kts 38°
2026-04-22 20:49 55.67937 12.74812 4295 ft 240 kts 37°
2026-04-22 20:50 55.69224 12.76851 4874 ft 255 kts 39°
2026-04-22 20:50 55.70232 12.79517 5030 ft 270 kts 64°
2026-04-22 20:50 55.70481 12.82857 5024 ft 281 kts 91°
2026-04-22 20:50 55.69859 12.86171 5023 ft 290 kts 118°
2026-04-22 20:51 55.68465 12.88765 5023 ft 295 kts 146°
2026-04-22 20:51 55.66620 12.90213 5022 ft 295 kts 164°
2026-04-22 20:51 55.64623 12.91113 5074 ft 297 kts 167°
2026-04-22 20:51 55.62612 12.92000 5469 ft 299 kts 169°
2026-04-22 20:52 55.60552 12.92020 6383 ft 294 kts 196°
2026-04-22 20:52 55.58711 12.90560 7225 ft 290 kts 222°
2026-04-22 20:52 55.57254 12.88122 8041 ft 289 kts 232°
2026-04-22 20:52 55.55900 12.85464 8882 ft 293 kts 233°
2026-04-22 20:53 55.54529 12.82761 9711 ft 297 kts 232°
2026-04-22 20:53 55.53111 12.80054 10496 ft 303 kts 231°
2026-04-22 20:53 55.51612 12.77253 10782 ft 324 kts 232°
2026-04-22 20:53 55.50114 12.74129 11004 ft 344 kts 234°
2026-04-22 20:54 55.48577 12.70879 11487 ft 353 kts 234°
2026-04-22 20:54 55.46992 12.67556 12197 ft 356 kts 233°
2026-04-22 20:54 55.45387 12.64200 12883 ft 360 kts 233°
2026-04-22 20:54 55.43765 12.60810 13576 ft 364 kts 233°
2026-04-22 20:55 55.42126 12.57388 14242 ft 367 kts 232°
2026-04-22 20:55 55.40467 12.53928 14831 ft 372 kts 232°
2026-04-22 20:55 55.38788 12.50427 15418 ft 376 kts 232°
2026-04-22 20:55 55.37089 12.46892 16016 ft 380 kts 232°
2026-04-22 20:56 55.35372 12.43323 16590 ft 384 kts 232°
2026-04-22 20:56 55.33633 12.39716 17148 ft 388 kts 232°
2026-04-22 20:56 55.31878 12.36079 17743 ft 393 kts 232°
2026-04-22 20:56 55.30099 12.32398 18271 ft 397 kts 232°
2026-04-22 20:57 55.28304 12.28691 18790 ft 401 kts 231°
2026-04-22 20:57 55.26490 12.24951 19269 ft 404 kts 231°
2026-04-22 20:57 55.24685 12.21231 19746 ft 408 kts 231°
2026-04-22 20:57 55.22817 12.17390 20254 ft 410 kts 230°
2026-04-22 20:58 55.20952 12.13671 20683 ft 414 kts 226°
2026-04-22 20:58 55.18808 12.10291 21154 ft 417 kts 218°
2026-04-22 20:58 55.16461 12.07305 21740 ft 416 kts 215°
2026-04-22 20:58 55.14098 12.04316 22177 ft 420 kts 215°
2026-04-22 20:59 55.11723 12.01288 22622 ft 424 kts 215°
2026-04-22 20:59 55.09336 11.98242 23076 ft 427 kts 215°
2026-04-22 20:59 55.06930 11.95173 23528 ft 430 kts 215°
2026-04-22 20:59 55.04500 11.92080 23948 ft 433 kts 214°
2026-04-22 21:00 55.02048 11.88966 24175 ft 437 kts 215°
2026-04-22 21:00 54.99571 11.85826 24259 ft 447 kts 214°
2026-04-22 21:00 54.97016 11.82593 24265 ft 459 kts 214°
2026-04-22 21:00 54.94451 11.79352 24270 ft 464 kts 214°
2026-04-22 21:01 54.91844 11.76061 24265 ft 463 kts 214°
2026-04-22 21:01 54.89244 11.72784 24257 ft 459 kts 214°
2026-04-22 21:01 54.86692 11.69571 24132 ft 446 kts 214°
2026-04-22 21:01 54.84164 11.66625 23916 ft 431 kts 206°
2026-04-22 21:02 54.81432 11.64616 23363 ft 424 kts 197°
2026-04-22 21:02 54.78634 11.63072 22752 ft 420 kts 195°
2026-04-22 21:02 54.75853 11.61583 22186 ft 416 kts 195°
2026-04-22 21:02 54.73112 11.60040 21624 ft 412 kts 197°
2026-04-22 21:03 54.70405 11.58442 21091 ft 409 kts 198°
2026-04-22 21:03 54.67735 11.56820 20592 ft 404 kts 198°
2026-04-22 21:03 54.65094 11.55198 20048 ft 401 kts 198°
2026-04-22 21:03 54.62508 11.53605 19516 ft 398 kts 198°
2026-04-22 21:04 54.59900 11.52000 19013 ft 395 kts 199°
2026-04-22 21:04 54.57322 11.50416 18499 ft 392 kts 199°
2026-04-22 21:04 54.54763 11.48846 17895 ft 389 kts 199°
2026-04-22 21:04 54.52218 11.47288 17311 ft 386 kts 199°
2026-04-22 21:05 54.49691 11.45743 16730 ft 383 kts 199°
2026-04-22 21:05 54.47182 11.44211 16157 ft 381 kts 199°
2026-04-22 21:05 54.44688 11.42690 15672 ft 377 kts 199°
2026-04-22 21:05 54.42221 11.41187 15073 ft 376 kts 199°
2026-04-22 21:06 54.39766 11.39693 14542 ft 373 kts 200°
2026-04-22 21:06 54.37326 11.38212 14015 ft 371 kts 200°
2026-04-22 21:06 54.34900 11.36740 13455 ft 368 kts 200°
2026-04-22 21:06 54.32502 11.35287 12904 ft 365 kts 200°
2026-04-22 21:07 54.30114 11.33842 12360 ft 362 kts 200°
2026-04-22 21:07 54.27743 11.32410 11812 ft 360 kts 200°
2026-04-22 21:07 54.25419 11.31007 11281 ft 357 kts 200°
2026-04-22 21:07 54.23084 11.29599 10816 ft 353 kts 200°
2026-04-22 21:08 54.20817 11.28234 10674 ft 339 kts 200°
2026-04-22 21:08 54.18633 11.26920 10550 ft 325 kts 200°
2026-04-22 21:08 54.16539 11.25662 10429 ft 313 kts 200°
2026-04-22 21:08 54.14508 11.24443 10160 ft 308 kts 200°
2026-04-22 21:09 54.12496 11.23236 9760 ft 306 kts 200°
2026-04-22 21:09 54.10497 11.22039 9465 ft 301 kts 200°
2026-04-22 21:09 54.08559 11.20880 9354 ft 290 kts 200°
2026-04-22 21:09 54.06689 11.19763 9244 ft 279 kts 200°
2026-04-22 21:10 54.04887 11.18687 9128 ft 270 kts 201°
2026-04-22 21:10 54.03122 11.17633 8864 ft 268 kts 201°
2026-04-22 21:10 54.01358 11.16580 8581 ft 267 kts 201°
2026-04-22 21:10 53.99605 11.15535 8164 ft 267 kts 201°
2026-04-22 21:11 53.97877 11.14508 7641 ft 259 kts 201°
2026-04-22 21:11 53.96205 11.13514 7069 ft 255 kts 201°
2026-04-22 21:11 53.94596 11.12563 6862 ft 234 kts 202°
2026-04-22 21:11 53.93113 11.11688 6510 ft 217 kts 202°
2026-04-22 21:12 53.91696 11.10847 5734 ft 212 kts 202°
2026-04-22 21:12 53.90336 11.10040 4830 ft 204 kts 203°
2026-04-22 21:12 53.89008 11.09250 3896 ft 199 kts 204°
2026-04-22 21:12 53.87864 11.08087 3253 ft 187 kts 231°
2026-04-22 21:13 53.87171 11.06279 3039 ft 182 kts 250°
2026-04-22 21:13 53.86725 11.04271 2990 ft 181 kts 257°
2026-04-22 21:13 53.86355 11.02241 2995 ft 183 kts 258°
2026-04-22 21:13 53.85954 11.00187 2996 ft 184 kts 257°
2026-04-22 21:14 53.85563 10.98136 2997 ft 182 kts 257°
2026-04-22 21:14 53.85169 10.96089 2919 ft 182 kts 257°
2026-04-22 21:14 53.84779 10.94047 2657 ft 182 kts 257°
2026-04-22 21:14 53.84389 10.92015 2411 ft 181 kts 257°
2026-04-22 21:15 53.84001 10.89989 2159 ft 180 kts 257°
2026-04-22 21:15 53.83615 10.87983 1907 ft 178 kts 257°
2026-04-22 21:15 53.83235 10.86000 1668 ft 176 kts 257°
2026-04-22 21:15 53.82860 10.84048 1419 ft 173 kts 257°
2026-04-22 21:16 53.82491 10.82120 1187 ft 171 kts 257°
2026-04-22 21:16 53.82131 10.80235 957 ft 173 kts 257°
2026-04-22 21:16 53.81753 10.78296 722 ft 172 kts 254°
2026-04-22 21:16 53.81388 10.76370 483 ft 173 kts 253°
2026-04-22 21:17 53.81007 10.74445 280 ft 173 kts 252°
2026-04-22 21:17 53.80657 10.72676 73 ft 143 kts 253°
2026-04-22 21:17 53.80443 10.71452 65 ft 73 kts 252°
2026-04-22 21:17 53.80311 10.70756 57 ft 52 kts 252°
2026-04-22 21:18 53.80221 10.70293 60 ft 28 kts 258°
2026-04-22 21:18 53.80268 10.70173 60 ft 10 kts 340°
2026-04-22 21:18 53.80371 10.70130 60 ft 12 kts 15°
2026-04-22 21:18 53.80383 10.70138 59 ft 1 kts 29°
2026-04-22 21:19 53.80418 10.70205 61 ft 0 kts 65°
2026-04-22 21:19 53.80423 10.70228 54 ft 7 kts 75°
2026-04-22 21:19 53.80440 10.70322 54 ft 5 kts 62°
2026-04-22 21:19 53.80448 10.70343 55 ft 0 kts 34°
2026-04-22 21:20 53.80475 10.70366 59 ft 3 kts 353°
2026-04-22 21:20 53.80486 10.70353 57 ft 1 kts 292°
2026-04-22 21:20 53.80492 10.70314 58 ft 0 kts 301°